EHI
0 0 0 0 0 0 0 0 0 0 0 1 3 7 10 11 15 22 30 36 41 45 46 44 40 38 36 32 31 31 34 40 46 46 45 44 40 36 32 27 23 20 18 16
0 0 0 0 0 0 0 0 0 0 0 0 3 7 8 10 16 25 32 37 40 41 39 38 38 39 39 37 35 37 41 47 51 52 54 54 46 35 29 27 26 21 17 17
0 0 0 0 0 0 0 0 0 0 0 0 2 6 8 9 15 24 33 36 36 35 32 30 33 37 40 42 43 45 51 57 58 57 58 56 46 31 25 24 22 16 12 11
0 0 0 0 0 0 0 0 0 0 0 0 1 3 6 7 11 20 28 31 29 28 27 25 26 31 35 40 44 48 55 59 59 58 54 48 38 25 19 17 14 9 5 4
0 0 0 0 0 0 0 0 0 0 0 0 0 2 5 7 11 16 20 22 20 17 18 19 20 23 27 31 35 41 47 50 51 50 46 39 29 18 12 10 7 4 2 2
0 0 0 0 0 0 0 0 0 0 0 0 0 2 6 10 11 12 14 14 11 8 9 10 11 13 16 18 21 25 28 31 32 31 29 26 20 13 9 6 4 2 1 1
0 0 0 0 0 0 0 0 0 0 0 0 0 4 10 13 10 9 10 10 8 6 5 5 5 5 6 7 8 9 10 11 13 13 13 13 11 8 6 4 2 1 0 0
0 0 0 0 0 0 0 0 0 0 0 0 1 6 12 11 8 8 7 6 5 5 4 4 3 2 1 1 1 1 2 3 3 4 4 5 5 4 3 2 1 0 0 0
0 0 0 0 0 0 0 0 0 0 0 0 1 5 7 6 4 5 5 3 2 3 3 2 1 1 0 0 0 0 1 1 1 1 1 1 1 1 1 1 0 0 0 0
0 0 0 0 0 0 0 0 0 0 0 0 1 2 2 1 1 1 1 1 0 1 1 1 0 0 0 0 0 0 0 0 0 0 0 0 0 0 0 0 0 0 0 0
0 0 0 0 0 0 0 0 0 0 0 0 0 1 2 3 2 1 0 0 0 0 0 0 0 0 0 0 0 0 0 0 0 0 0 0 0 0 0 0 0 0 0 0
0 0 0 0 0 0 0 0 0 0 0 0 0 2 5 9 8 4 2 1 0 0 0 0 0 0 0 0 0 0 0 0 0 0 0 0 0 0 0 0 0 0 0 0
0 0 0 0 0 0 0 0 0 0 0 0 0 2 8 16 15 8 3 1 0 0 0 0 0 0 0 0 0 0 0 0 0 0 0 0 0 0 0 0 0 0 0 0
0 0 0 0 0 0 0 0 0 0 0 0 0 1 7 15 14 8 3 1 0 0 0 0 0 0 0 0 0 0 0 0 0 0 0 0 0 0 0 0 0 0 0 0
0 0 0 0 0 0 0 0 0 0 0 0 0 1 4 10 10 6 2 0 0 0 0 0 0 0 0 0 0 0 0 0 0 0 0 0 0 0 0 0 0 0 0 0
0 0 0 0 0 0 0 0 0 0 0 0 0 1 4 8 9 4 1 0 0 0 0 0 0 0 0 0 0 0 0 0 0 0 0 0 0 0 0 0 0 0 0 0
0 0 0 0 0 0 0 0 0 0 0 0 0 1 3 6 6 3 1 0 0 0 0 0 0 0 0 0 0 0 0 0 0 0 0 0 0 0 0 0 0 0 0 0
0 0 0 0 0 0 0 0 0 0 0 0 0 0 1 2 2 1 0 0 0 0 0 0 0 0 0 0 0 0 0 0 0 0 0 0 0 0 0 0 0 0 0 0
0 0 0 0 0 0 0 0 0 0 0 0 0 0 0 0 0 0 0 0 0 0 0 0 0 0 0 0 0 0 0 0 0 0 0 0 0 0 0 0 0 0 0 0
0 0 0 0 0 0 0 0 0 0 0 0 0 0 0 0 0 0 0 0 0 0 0 0 0 0 0 0 0 0 0 0 0 0 0 0 0 0 0 0 0 0 0 0
0 0 0 0 0 0 0 0 0 0 0 0 0 0 0 0 0 0 0 0 0 0 0 0 0 0 0 0 0 0 0 0 0 0 0 0 0 0 0 0 0 0 0 0
0 0 0 0 0 0 0 0 0 0 0 0 0 0 0 0 0 0 0 0 0 0 0 0 0 0 0 0 0 0 0 0 0 0 0 0 0 0 0 0 0 0 0 0
0 0 0 0 0 0 0 0 0 0 0 0 0 0 0 0 0 0 0 0 0 0 0 0 0 0 0 0 0 0 0 0 0 0 0 0 0 0 0 0 0 0 0 0
0 0 0 0 0 0 0 0 0 0 0 0 0 0 0 0 0 0 0 0 0 0 0 0 0 0 0 0 0 0 0 0 0 0 0 0 0 0 0 0 0 0 0 0
0 0 0 0 0 0 0 0 0 0 0 0 0 0 0 0 0 0 0 0 0 0 0 0 0 0 0 0 0 0 0 0 0 0 0 0 0 0 0 0 0 0 0 0
0 0 0 0 0 0 0 0 0 0 0 0 0 0 0 0 0 0 0 0 0 0 0 0 0 0 0 0 0 0 0 0 0 0 0 0 0 0 0 0 0 0 0 0
Wind_Speed
7 9 9 7 7 6 4 5 5 4 4 4 6 6 7 7 6 7 7 7 8 7 7 5 4 4 4 5 7 8 9 9 9 7 7 7 6 4 3 2 2 2 2 2
8 11 6 4 6 8 8 8 7 6 5 4 8 8 8 8 8 8 8 8 9 8 8 7 6 5 4 4 4 5 7 8 9 7 6 5 5 4 4 3 3 3 2 2
10 1 3 7 8 9 9 8 5 4 6 7 9 8 7 8 9 10 10 10 10 9 8 8 7 7 6 4 2 2 3 4 6 7 6 6 5 4 4 4 4 5 5 5
8 5 6 9 9 9 9 7 6 6 8 9 11 7 9 8 8 9 9 10 10 9 9 9 8 8 8 6 5 4 3 3 3 5 7 9 6 5 4 5 6 8 8 9
6 6 9 10 9 9 7 4 8 8 8 6 9 7 10 9 7 8 8 9 10 10 10 10 10 10 9 8 8 7 7 7 6 4 5 6 6 6 6 7 9 9 9 10
7 5 7 8 7 9 6 6 7 8 9 11 9 8 8 7 8 8 8 9 10 10 10 11 11 11 11 11 11 10 11 11 9 8 8 9 10 10 10 9 9 8 7 8
8 9 8 7 8 9 10 10 9 11 11 8 6 5 8 9 9 10 10 9 10 10 11 11 12 12 12 12 12 12 13 13 12 12 11 11 11 11 11 10 10 9 7 8
6 7 8 7 9 7 11 13 10 8 9 7 7 5 9 10 10 12 11 11 10 11 11 12 12 11 12 13 12 12 14 14 14 14 14 13 12 10 10 11 10 10 8 8
4 2 5 5 6 8 10 12 9 7 5 5 7 8 8 9 11 11 11 11 11 11 11 12 12 12 13 13 13 13 15 15 15 15 16 15 15 13 13 12 11 9 8 8
5 4 3 4 7 7 7 6 6 9 8 7 8 9 10 15 13 12 11 11 11 11 12 12 12 13 13 13 14 15 15 15 15 15 14 13 14 13 13 12 13 11 10 9
5 5 4 6 6 6 7 7 7 8 7 6 7 5 6 16 16 14 13 12 12 12 12 12 12 12 12 13 13 13 14 15 14 14 14 14 13 13 12 11 12 11 10 10
2 6 3 2 2 2 5 5 7 7 7 7 4 6 6 12 16 16 15 13 13 13 12 12 12 12 12 13 13 13 13 14 13 13 13 13 12 12 12 12 11 10 10 10
2 5 4 7 7 6 3 1 4 6 5 6 6 6 8 12 16 16 16 14 13 13 13 12 12 12 12 12 12 12 12 12 12 12 13 13 12 11 11 10 10 10 10 9
5 3 4 1 3 1 1 0 2 6 7 6 4 7 11 14 15 15 15 15 14 13 13 12 11 11 11 11 11 11 11 11 11 12 12 12 11 10 10 10 9 9 9 8
4 1 3 5 5 4 4 3 2 3 6 5 1 6 10 13 14 15 15 15 15 14 13 12 11 11 10 10 10 10 11 10 10 11 11 11 10 9 9 9 8 8 7 7
1 2 4 5 5 5 7 7 5 5 5 3 5 7 7 11 13 14 14 15 15 14 13 12 12 11 11 10 10 10 10 9 9 10 10 9 9 9 8 8 7 7 6 6
2 3 3 3 3 4 5 8 7 6 6 5 4 5 7 10 12 13 14 14 14 14 13 12 11 10 10 9 9 9 9 8 9 9 9 8 8 8 7 6 6 6 6 5
1 2 2 2 4 1 6 4 4 5 7 7 7 8 8 9 10 10 12 14 14 14 13 11 9 9 9 9 8 8 8 8 8 8 8 7 7 7 6 6 6 5 5 5
2 3 2 2 2 5 6 3 3 2 5 6 9 9 11 13 13 9 9 12 13 14 13 11 10 9 8 8 8 8 8 8 7 7 7 6 6 5 5 5 5 4 4 4
2 2 3 2 2 2 6 4 3 3 4 6 7 9 9 9 6 6 10 13 14 13 12 11 10 10 8 8 7 7 7 7 7 6 6 5 4 4 4 4 3 3 3 4
0 0 1 1 1 6 6 3 4 3 4 6 6 7 6 4 8 14 15 14 14 13 12 11 10 9 8 7 6 7 7 6 6 5 4 3 3 2 2 2 2 2 3 3
4 1 2 1 0 5 5 2 4 6 6 7 7 8 11 15 18 16 16 15 14 13 12 10 9 8 7 6 6 7 6 5 4 3 3 2 2 2 1 1 1 2 3 2
3 5 4 5 7 7 5 6 6 6 8 9 9 12 15 17 17 16 15 14 13 12 11 9 9 9 7 6 5 6 5 4 3 2 2 2 1 1 1 1 1 1 2 3
5 1 4 6 7 7 7 7 7 8 10 11 12 14 16 17 16 15 14 13 12 11 10 9 9 9 7 6 5 4 3 2 1 1 1 1 1 0 1 1 2 3 4 4
5 5 4 6 9 9 7 8 10 11 12 14 14 14 15 17 16 15 13 13 11 10 9 8 8 7 7 6 5 3 2 1 1 1 1 1 0 1 1 2 4 5 6 7
4 4 3 4 9 7 10 10 11 13 14 14 15 15 14 15 15 14 13 11 11 10 9 8 8 7 6 5 4 3 1 1 2 2 1 1 0 1 0 2 4 5 4 4
Wind_Direction
198 226 225 218 233 280 276 249 202 160 126 172 142 103 72 61 77 93 100 103 103 95 86 83 94 117 138 155 169 178 186 183 184 185 187 184 180 169 154 140 135 156 167 153
210 228 237 233 229 240 238 234 207 166 148 174 133 106 80 65 69 73 83 88 87 83 79 73 71 83 108 133 152 173 186 184 186 183 182 173 150 141 128 113 92 76 74 85
243 233 187 220 213 224 228 233 222 182 158 168 160 139 115 90 82 79 77 80 80 77 77 73 67 63 67 73 98 135 170 177 180 172 166 148 137 137 138 121 91 60 54 55
241 224 213 223 221 227 224 217 236 222 220 190 212 182 141 126 102 84 77 75 75 73 73 68 63 56 51 49 56 68 83 105 133 158 166 165 162 151 124 106 92 72 57 53
231 215 224 230 228 227 244 223 229 231 238 221 206 213 139 147 125 98 83 78 75 71 72 66 60 57 51 49 56 64 70 69 79 106 134 138 122 109 103 94 85 73 61 56
261 229 241 244 233 226 233 219 221 229 225 220 208 220 151 152 136 120 97 83 77 74 72 68 64 60 54 52 54 58 64 62 64 75 88 103 112 111 105 98 92 80 72 67
224 213 214 233 224 203 221 220 208 205 210 201 175 214 105 104 111 118 109 94 83 77 73 67 62 60 58 56 57 60 65 63 62 68 73 81 90 95 96 95 91 88 81 72
240 207 196 208 231 215 212 228 239 227 207 169 171 160 106 101 104 108 108 101 91 82 76 71 66 64 63 62 62 66 69 69 67 68 70 73 78 82 82 81 83 80 78 75
279 202 160 204 229 247 209 223 251 271 246 197 154 121 123 127 124 121 115 106 94 86 81 77 71 67 66 65 64 68 73 73 73 75 76 75 76 80 84 85 83 82 82 82
292 271 180 179 206 217 260 230 225 244 228 209 177 182 171 164 155 140 127 115 104 97 89 83 77 74 71 71 71 70 72 74 74 76 79 82 82 83 85 84 83 84 84 84
273 268 195 192 214 196 203 212 235 250 268 248 198 159 129 161 157 147 134 124 115 106 98 92 87 82 80 78 76 76 77 77 77 77 80 81 82 84 86 87 89 88 85 82
271 280 234 173 99 284 242 236 234 244 235 261 262 105 98 147 146 141 132 124 117 110 103 98 94 89 86 82 80 78 79 80 82 83 83 83 83 84 85 85 85 86 83 80
295 262 224 175 170 178 198 216 260 266 260 251 249 124 112 135 137 136 133 127 121 114 109 103 98 93 89 87 86 84 82 84 86 87 87 86 85 85 85 86 85 83 82 78
283 284 310 344 76 118 153 263 272 264 255 249 247 138 145 146 142 140 135 130 125 120 116 111 105 99 95 92 90 90 89 89 89 89 88 86 85 85 86 86 84 83 82 78
271 250 82 71 76 79 63 37 11 317 316 302 69 136 151 157 149 143 138 134 130 126 121 117 112 108 104 99 95 93 92 92 93 94 92 91 92 92 91 88 84 81 76 72
276 164 137 119 124 108 74 44 39 27 8 28 85 86 103 134 136 139 141 138 133 130 127 123 117 113 108 104 102 100 99 99 99 96 95 95 96 94 91 88 85 79 70 61
188 207 221 161 165 198 76 32 32 45 26 17 43 84 111 129 141 145 143 139 134 131 127 123 119 115 112 110 110 108 108 108 104 100 99 100 97 93 91 88 81 70 61 52
232 240 250 194 213 191 80 59 48 68 54 49 74 91 94 101 110 121 133 134 132 130 126 122 119 118 117 117 117 116 115 112 107 104 102 99 97 93 86 77 68 57 47 39
341 291 278 254 183 119 124 75 8 10 73 67 96 101 104 108 97 87 109 123 127 128 125 124 125 124 122 124 124 120 116 113 109 104 101 94 89 86 79 69 58 45 33 26
108 275 267 261 264 103 85 44 347 265 127 101 117 130 138 146 130 123 123 121 122 122 123 126 128 128 129 129 127 123 119 114 107 102 97 90 79 66 60 53 38 37 18 11
144 110 10 349 84 86 53 348 270 278 85 120 133 141 148 128 111 126 128 124 124 125 128 131 132 132 129 130 129 123 116 109 105 104 97 87 70 57 45 38 27 4 357 9
344 15 61 304 127 86 34 351 23 59 96 120 123 117 110 108 115 124 127 127 128 129 132 134 134 131 132 135 133 123 112 111 114 109 101 83 46 13 41 26 357 345 332 324
18 16 29 29 55 77 63 65 76 102 117 119 119 118 121 123 126 127 127 128 130 133 135 139 137 133 134 135 130 120 117 120 120 114 73 42 20 6 358 331 333 317 322 341
123 133 122 114 110 105 98 98 101 108 115 117 120 123 125 124 127 128 127 128 131 133 135 140 141 138 135 134 128 124 121 119 115 86 31 342 332 19 89 330 351 358 6 7
126 162 143 122 129 129 115 111 113 113 116 118 120 125 128 129 131 131 131 134 134 135 140 142 139 135 133 135 134 137 137 200 262 300 311 308 340 80 96 69 35 12 46 31
162 174 195 140 157 152 133 130 129 127 126 127 127 126 129 131 131 131 132 134 137 139 141 142 141 138 136 142 141 143 172 267 286 280 277 299 7 74 341 123 126 80 51 93